| time (UTC) | temp F | wind direction | speed MPH | gust MPH | rain 1hr in | rain 24hr in | rain mn in | humidity % | barometer mb |
| 20260904200044 | 65 | 0 | 1.0 | 6.0 | 0.00 | 0.23 | 0.03 | 70 | 1014.0 |
| 20260904194545 | 65 | 312 | 0.0 | 6.0 | 0.00 | 0.23 | 0.03 | 71 | 1013.9 |
| 20260904193044 | 65 | 151 | 1.0 | 4.0 | 0.00 | 0.23 | 0.03 | 72 | 1013.9 |
| 20260904191547 | 63 | 309 | 1.0 | 3.0 | 0.00 | 0.23 | 0.03 | 75 | 1014.0 |
| 20260904190046 | 62 | 225 | 0.0 | 6.0 | 0.00 | 0.23 | 0.03 | 78 | 1014.0 |
| 20260904184550 | 61 | 257 | 0.0 | 4.0 | 0.00 | 0.23 | 0.03 | 77 | 1014.0 |
| 20260904183051 | 60 | 0 | 0.0 | 3.0 | 0.00 | 0.23 | 0.03 | 83 | 1014.2 |
| 20260904181542 | 59 | 252 | 1.0 | 3.0 | 0.00 | 0.23 | 0.03 | 85 | 1014.2 |
| 20260904180104 | 58 | 340 | 0.0 | 3.0 | 0.00 | 0.23 | 0.03 | 88 | 1014.2 |
| 20260904174545 | 57 | 0 | 0.0 | 3.0 | 0.00 | 0.23 | 0.03 | 89 | 1014.2 |
| 20260904173045 | 57 | 0 | 0.0 | 3.0 | 0.00 | 0.23 | 0.03 | 92 | 1014.1 |
| 20260904171549 | 56 | 360 | 0.0 | 4.0 | 0.00 | 0.23 | 0.03 | 93 | 1014.1 |
| 20260904170046 | 55 | 0 | 0.0 | 3.0 | 0.00 | 0.23 | 0.03 | 94 | 1014.0 |
| 20260904164543 | 55 | 0 | 0.0 | 2.0 | 0.00 | 0.23 | 0.03 | 94 | 1014.0 |
| 20260904163039 | 55 | 0 | 0.0 | 2.0 | 0.00 | 0.23 | 0.03 | 94 | 1014.0 |
| 20260904161541 | 54 | 94 | 0.0 | 1.0 | 0.00 | 0.23 | 0.03 | 94 | 1014.0 |
| 20260904160040 | 54 | 0 | 0.0 | 2.0 | 0.00 | 0.23 | 0.03 | 94 | 1013.9 |
| 20260904154539 | 54 | 0 | 0.0 | 1.0 | 0.00 | 0.23 | 0.03 | 94 | 1013.7 |
| 20260904153050 | 53 | 0 | 0.0 | 2.0 | 0.00 | 0.23 | 0.03 | 94 | 1013.5 |
| 20260904151540 | 53 | 0 | 0.0 | 0.0 | 0.00 | 0.23 | 0.03 | 94 | 1013.5 |
| 20260904150046 | 53 | 0 | 0.0 | 0.0 | 0.00 | 0.23 | 0.03 | 94 | 1013.5 |
| 20260904144556 | 53 | 0 | 0.0 | 0.0 | 0.00 | 0.23 | 0.03 | 94 | 1013.3 |
| 20260904143047 | 52 | 0 | 0.0 | 0.0 | 0.00 | 0.23 | 0.03 | 94 | 1013.2 |
| 20260904141546 | 52 | 0 | 0.0 | 0.0 | 0.00 | 0.23 | 0.03 | 94 | 1013.0 |
| 20260904140054 | 52 | 0 | 0.0 | 0.0 | 0.01 | 0.23 | 0.03 | 94 | 1012.8 |
| 20260904134540 | 52 | 0 | 0.0 | 0.0 | 0.01 | 0.25 | 0.03 | 94 | 1012.5 |
| 20260904133040 | 52 | 0 | 0.0 | 0.0 | 0.01 | 0.25 | 0.03 | 94 | 1012.4 |
| 20260904131542 | 52 | 0 | 0.0 | 0.0 | 0.01 | 0.25 | 0.03 | 94 | 1012.4 |
| 20260904130044 | 52 | 0 | 0.0 | 0.0 | 0.00 | 0.24 | 0.02 | 94 | 1012.2 |
| 20260904124539 | 52 | 0 | 0.0 | 0.0 | 0.00 | 0.26 | 0.02 | 93 | 1012.2 |
| 20260904123040 | 52 | 0 | 0.0 | 0.0 | 0.00 | 0.26 | 0.02 | 93 | 1012.1 |
| 20260904121537 | 52 | 0 | 0.0 | 0.0 | 0.00 | 0.26 | 0.02 | 93 | 1012.1 |
| 20260904120035 | 52 | 0 | 0.0 | 0.0 | 0.00 | 0.26 | 0.02 | 93 | 1012.0 |
| 20260904114544 | 52 | 0 | 0.0 | 0.0 | 0.00 | 0.28 | 0.02 | 93 | 1012.0 |
| 20260904113039 | 53 | 0 | 0.0 | 0.0 | 0.00 | 0.28 | 0.02 | 93 | 1011.7 |
| 20260904111539 | 53 | 0 | 0.0 | 0.0 | 0.00 | 0.28 | 0.02 | 93 | 1011.7 |
| 20260904110043 | 53 | 0 | 0.0 | 0.0 | 0.00 | 0.28 | 0.02 | 93 | 1011.6 |
| 20260904104539 | 53 | 0 | 0.0 | 0.0 | 0.00 | 0.28 | 0.02 | 93 | 1011.6 |
| 20260904103041 | 53 | 0 | 0.0 | 0.0 | 0.01 | 0.28 | 0.02 | 93 | 1011.6 |
| 20260904101539 | 53 | 0 | 0.0 | 0.0 | 0.01 | 0.28 | 0.02 | 93 | 1011.6 |
| 20260904100045 | 53 | 0 | 0.0 | 0.0 | 0.01 | 0.28 | 0.02 | 93 | 1011.5 |
| 20260904094544 | 53 | 0 | 0.0 | 0.0 | 0.01 | 0.28 | 0.02 | 93 | 1011.3 |
| 20260904093045 | 53 | 0 | 0.0 | 0.0 | 0.00 | 0.27 | 0.01 | 93 | 1011.3 |
| 20260904091541 | 53 | 0 | 0.0 | 0.0 | 0.00 | 0.27 | 0.01 | 93 | 1011.2 |
| 20260904090039 | 53 | 0 | 0.0 | 0.0 | 0.00 | 0.27 | 0.01 | 93 | 1011.4 |
| 20260904084540 | 53 | 0 | 0.0 | 0.0 | 0.00 | 0.27 | 0.01 | 93 | 1011.3 |
| 20260904083042 | 52 | 0 | 0.0 | 0.0 | 0.00 | 0.27 | 0.01 | 92 | 1011.2 |
| 20260904081540 | 53 | 0 | 0.0 | 0.0 | 0.01 | 0.27 | 0.01 | 92 | 1011.3 |
| 20260904080037 | 53 | 0 | 0.0 | 2.0 | 0.01 | 0.27 | 0.01 | 92 | 1011.5 |
| 20260904074539 | 53 | 0 | 0.0 | 0.0 | 0.02 | 0.27 | 0.01 | 92 | 1011.5 |
| 20260904073046 | 53 | 0 | 0.0 | 2.0 | 0.02 | 0.27 | 0.01 | 92 | 1011.5 |
| 20260904071544 | 53 | 0 | 0.0 | 0.0 | 0.01 | 0.26 | 0.00 | 92 | 1011.5 |
| 20260904070044 | 53 | 0 | 0.0 | 2.0 | 0.01 | 0.26 | 0.00 | 92 | 1011.4 |
| 20260904064542 | 54 | 74 | 0.0 | 3.0 | 0.00 | 0.25 | 0.25 | 92 | 1011.3 |
| 20260904063047 | 54 | 0 | 0.0 | 3.0 | 0.00 | 0.25 | 0.25 | 92 | 1011.3 |
| 20260904061540 | 54 | 104 | 0.0 | 1.0 | 0.00 | 0.25 | 0.25 | 92 | 1011.3 |
| 20260904060100 | 54 | 0 | 0.0 | 0.0 | 0.00 | 0.25 | 0.25 | 92 | 1011.1 |
| 20260904054549 | 54 | 0 | 0.0 | 0.0 | 0.00 | 0.25 | 0.25 | 92 | 1011.1 |
| 20260904053041 | 54 | 0 | 0.0 | 0.0 | 0.00 | 0.25 | 0.25 | 92 | 1011.1 |
| 20260904051542 | 54 | 0 | 0.0 | 0.0 | 0.00 | 0.25 | 0.25 | 91 | 1011.2 |
| 20260904050044 | 54 | 0 | 0.0 | 0.0 | 0.00 | 0.25 | 0.25 | 91 | 1011.1 |
| 20260904044540 | 54 | 0 | 0.0 | 2.0 | 0.00 | 0.25 | 0.25 | 91 | 1011.2 |
| 20260904043038 | 54 | 0 | 0.0 | 0.0 | 0.00 | 0.25 | 0.25 | 91 | 1011.2 |
| 20260904041543 | 54 | 0 | 0.0 | 2.0 | 0.00 | 0.25 | 0.25 | 90 | 1011.1 |
| 20260904040044 | 55 | 0 | 0.0 | 0.0 | 0.02 | 0.25 | 0.25 | 90 | 1011.1 |
| 20260904034544 | 55 | 0 | 0.0 | 2.0 | 0.09 | 0.25 | 0.25 | 90 | 1011.0 |
| 20260904033038 | 55 | 0 | 0.0 | 2.0 | 0.11 | 0.25 | 0.25 | 89 | 1010.9 |
| 20260904031539 | 55 | 0 | 1.0 | 3.0 | 0.14 | 0.25 | 0.25 | 88 | 1010.7 |
| 20260904030041 | 56 | 0 | 0.0 | 0.0 | 0.13 | 0.23 | 0.23 | 88 | 1010.6 |
| 20260904024538 | 57 | 0 | 0.0 | 0.0 | 0.10 | 0.16 | 0.16 | 87 | 1010.6 |
| 20260904023045 | 57 | 0 | 0.0 | 1.0 | 0.08 | 0.14 | 0.14 | 85 | 1010.6 |
| 20260904021551 | 58 | 0 | 0.0 | 5.0 | 0.05 | 0.11 | 0.11 | 83 | 1010.6 |
| 20260904020042 | 60 | 0 | 0.0 | 3.0 | 0.04 | 0.10 | 0.10 | 76 | 1010.8 |
| 20260904014550 | 63 | 0 | 0.0 | 3.0 | 0.00 | 0.06 | 0.06 | 63 | 1010.7 |
| 20260904013105 | 64 | 315 | 0.0 | 8.0 | 0.00 | 0.06 | 0.06 | 61 | 1010.1 |
| 20260904011544 | 66 | 328 | 0.0 | 5.0 | 0.00 | 0.06 | 0.06 | 62 | 1010.0 |
| 20260904010042 | 65 | 287 | 1.0 | 8.0 | 0.00 | 0.06 | 0.06 | 61 | 1010.0 |
| 20260904004545 | 64 | 231 | 3.0 | 12.0 | 0.00 | 0.09 | 0.06 | 63 | 1009.9 |
| 20260904003045 | 65 | 284 | 1.0 | 6.0 | 0.00 | 0.09 | 0.06 | 68 | 1009.7 |
| 20260904001557 | 65 | 338 | 1.0 | 9.0 | 0.00 | 0.09 | 0.06 | 68 | 1009.8 |
| 20260904000042 | 65 | 281 | 2.0 | 8.0 | 0.00 | 0.09 | 0.06 | 67 | 1010.0 |
| 20260903234547 | 64 | 296 | 3.0 | 10.0 | 0.00 | 0.14 | 0.06 | 69 | 1010.1 |
| 20260903233046 | 63 | 334 | 2.0 | 9.0 | 0.00 | 0.14 | 0.06 | 69 | 1010.1 |
| 20260903231545 | 64 | 308 | 4.0 | 17.0 | 0.00 | 0.14 | 0.06 | 67 | 1010.0 |
| 20260903230043 | 69 | 261 | 2.0 | 7.0 | 0.00 | 0.14 | 0.06 | 53 | 1009.9 |
| 20260903224548 | 68 | 302 | 1.0 | 5.0 | 0.00 | 0.17 | 0.06 | 55 | 1009.8 |
| 20260903223045 | 67 | 0 | 0.0 | 3.0 | 0.00 | 0.17 | 0.06 | 58 | 1009.8 |
| 20260903221547 | 67 | 188 | 0.0 | 3.0 | 0.00 | 0.17 | 0.06 | 56 | 1009.8 |
| 20260903220044 | 66 | 242 | 0.0 | 5.0 | 0.00 | 0.17 | 0.06 | 59 | 1009.8 |
| 20260903214542 | 66 | 204 | 1.0 | 7.0 | 0.00 | 0.23 | 0.06 | 58 | 1009.9 |
| 20260903213049 | 65 | 141 | 0.0 | 6.0 | 0.00 | 0.23 | 0.06 | 60 | 1010.0 |
| 20260903211545 | 65 | 271 | 0.0 | 4.0 | 0.00 | 0.23 | 0.06 | 62 | 1010.1 |
| 20260903210047 | 65 | 162 | 1.0 | 7.0 | 0.00 | 0.23 | 0.06 | 63 | 1010.0 |
| 20260903204542 | 65 | 171 | 2.0 | 8.0 | 0.00 | 0.26 | 0.06 | 65 | 1010.1 |
| 20260903203052 | 65 | 123 | 4.0 | 12.0 | 0.00 | 0.26 | 0.06 | 64 | 1010.1 |
| 20260903201545 | 64 | 83 | 4.0 | 11.0 | 0.00 | 0.26 | 0.06 | 66 | 1010.1 |